| time (UTC) | temp F | wind direction | speed knots | gust knots | rain 1hr in | rain 24hr in | rain mn in | humidity % | barometer mb |
| 20260507033007 | 52 | 53 | 4.3 | 11.3 | 0.00 | 0.86 | 0.26 | 94 | 985.9 |
| 20260507030007 | 52 | 55 | 4.3 | 11.3 | 0.00 | 0.86 | 0.26 | 95 | 986.0 |
| 20260507023006 | 52 | 47 | 5.2 | 10.4 | 0.00 | 0.87 | 0.26 | 95 | 986.0 |
| 20260507020009 | 52 | 51 | 3.5 | 12.2 | 0.00 | 0.87 | 0.26 | 95 | 986.1 |
| 20260507013006 | 52 | 42 | 6.1 | 13.0 | 0.01 | 0.87 | 0.26 | 96 | 985.9 |
| 20260507010006 | 52 | 51 | 3.5 | 8.7 | 0.17 | 0.87 | 0.26 | 96 | 985.8 |
| 20260507003007 | 53 | 34 | 4.3 | 13.0 | 0.18 | 0.86 | 0.25 | 95 | 985.7 |
| 20260507000011 | 53 | 35 | 6.1 | 11.3 | 0.08 | 0.70 | 0.09 | 94 | 985.8 |
| 20260506233014 | 53 | 37 | 7.0 | 11.3 | 0.07 | 0.68 | 0.07 | 94 | 985.7 |
| 20260506230012 | 53 | 47 | 5.2 | 10.4 | 0.01 | 0.64 | 0.01 | 93 | 985.5 |
| 20260506223014 | 54 | 50 | 4.3 | 8.7 | 0.01 | 0.67 | 0.00 | 93 | 985.6 |
| 20260506220011 | 54 | 48 | 4.3 | 11.3 | 0.01 | 0.67 | 0.00 | 90 | 985.5 |
| 20260506210010 | 55 | 47 | 2.6 | 8.7 | 0.00 | 0.66 | 0.66 | 88 | 985.3 |
| 20260506203013 | 56 | 49 | 3.5 | 8.7 | 0.00 | 0.66 | 0.66 | 89 | 985.2 |
| 20260506200010 | 56 | 26 | 2.6 | 7.0 | 0.00 | 0.66 | 0.66 | 89 | 984.7 |
| 20260506193010 | 55 | 58 | 1.7 | 5.2 | 0.00 | 0.66 | 0.66 | 90 | 984.6 |
| 20260506190014 | 55 | 34 | 1.7 | 7.8 | 0.00 | 0.67 | 0.66 | 90 | 984.0 |
| 20260506173009 | 57 | 306 | 1.7 | 5.2 | 0.00 | 0.74 | 0.65 | 79 | 982.7 |
| 20260506170011 | 59 | 47 | 2.6 | 11.3 | 0.00 | 0.79 | 0.65 | 71 | 982.4 |
| 20260506163011 | 59 | 31 | 7.0 | 17.4 | 0.00 | 0.84 | 0.65 | 70 | 982.0 |
| 20260506153008 | 60 | 50 | 11.3 | 20.0 | 0.00 | 0.88 | 0.65 | 68 | 981.8 |
| 20260506150012 | 60 | 46 | 11.3 | 19.1 | 0.00 | 0.88 | 0.65 | 69 | 981.9 |
| 20260506140009 | 58 | 50 | 7.8 | 18.2 | 0.00 | 0.88 | 0.65 | 78 | 982.1 |
| 20260506133011 | 59 | 46 | 7.8 | 14.8 | 0.00 | 0.88 | 0.65 | 73 | 982.6 |
| 20260506130015 | 56 | 56 | 5.2 | 11.3 | 0.00 | 0.88 | 0.65 | 84 | 982.3 |
| 20260506123012 | 53 | 40 | 5.2 | 15.6 | 0.31 | 0.88 | 0.65 | 94 | 982.5 |
| 20260506120018 | 53 | 297 | 3.5 | 17.4 | 0.31 | 0.88 | 0.65 | 92 | 982.0 |
| 20260506113014 | 60 | 210 | 4.3 | 20.9 | 0.00 | 0.58 | 0.34 | 85 | 981.8 |
| 20260506110010 | 60 | 146 | 11.3 | 20.0 | 0.00 | 0.60 | 0.34 | 85 | 981.4 |
| 20260506103009 | 58 | 158 | 4.3 | 14.8 | 0.00 | 0.60 | 0.34 | 90 | 981.9 |
| 20260506100009 | 58 | 146 | 8.7 | 20.0 | 0.00 | 0.62 | 0.34 | 89 | 982.0 |
| 20260506093010 | 57 | 136 | 11.3 | 20.0 | 0.00 | 0.62 | 0.34 | 94 | 981.8 |
| 20260506090009 | 56 | 139 | 9.6 | 18.2 | 0.00 | 0.62 | 0.34 | 97 | 981.7 |
| 20260506083011 | 55 | 141 | 14.8 | 20.9 | 0.00 | 0.64 | 0.34 | 99 | 982.0 |
| 20260506073010 | 55 | 85 | 7.8 | 12.2 | 0.00 | 0.66 | 0.34 | 99 | 982.4 |